Location: Caltech
(34.1382°N, 118.1253°W)
Time: 04:14:00
(UTC-07:00)

ERBS - Visible Passes

Search period start: 20 April 2014 00:00
Search period end: 30 April 2014 00:00
Orbit: 467 x 498 km, 57.0° (Epoch: 19 April)

Date Brightness Start Highest point End Pass type
(mag) Time Alt. Az. Time Alt. Az. Time Alt. Az.
20 Apr 4.5 20:51:23 10° N 20:53:46 16° NE 20:54:18 16° NE visible
20 Apr 5.7 22:28:09 10° NW 22:28:35 13° NW 22:28:35 13° NW visible
21 Apr 4.7 20:24:44 10° N 20:26:50 15° NE 20:28:33 11° ENE visible
21 Apr 4.8 22:01:13 10° NW 22:02:50 24° WNW 22:02:50 24° WNW visible
22 Apr 4.8 19:58:08 10° N 19:59:52 13° NE 20:01:36 10° ENE visible
22 Apr 3.4 21:34:16 10° NW 21:37:07 47° WNW 21:37:07 47° WNW visible
23 Apr 2.5 21:07:18 10° NW 21:10:56 74° SW 21:11:26 61° S visible
24 Apr 2.4 20:40:20 10° NW 20:43:59 89° SW 20:45:48 28° SE visible
25 Apr 2.5 20:13:20 10° NW 20:16:59 77° NE 20:20:14 13° SE visible
27 Apr 5.5 20:59:29 10° WSW 21:00:07 10° WSW 21:00:45 10° SW visible
28 Apr 5.3 20:31:28 10° W 20:33:04 13° WSW 20:34:41 10° SW visible
29 Apr 5.2 20:03:52 10° W 20:06:00 15° WSW 20:08:08 10° SSW visible
